Flag for USA

Past Weather in Nuiqsut, Alaska, USA — Yesterday and Last 2 Weeks

Now
36 °F

Fog.


Feels Like: 30 °F
Forecast: 51 / 37 °F
Wind: 7 mph from Northeast

Location: Nuiqsut Airport

Current Time: Jul 14, 2020 at 5:26:18 am

Latest Report: Jul 14, 2020 at 3:53 am


Visibility: 0 mi

Pressure: 29.95 "Hg

Humidity: 100%

Dew Point: 36 °F

Location of NuiqsutLocation

Past Weather in Nuiqsut — Graph

°F

Nuiqsut Temperature Yesterday

Maximum temperature yesterday: 48 °F (at 2:53 pm)
Minimum temperature yesterday: 38 °F (at 2:53 am)
Average temperature yesterday: 42 °F

High & Low Weather Summary for the Past Weeks

 TemperatureHumidityPressure
High58 °F (Jul 8, 1:53 pm)100% (Jun 30, 6:53 am)30.38 "Hg (Jun 30, 6:53 am)
Low32 °F (Jul 10, 4:53 am)45% (Jul 4, 6:53 pm)29.79 "Hg (Jul 12, 4:53 pm)
Average43 °F82%30.09 "Hg
* Reported Jun 29 3:53 am — Jul 14 3:53 am, Nuiqsut. Weather by CustomWeather, © 2020

Note: Actual official high and low records may vary slightly from our data, if they occured in-between our weather recording intervals... More about our weather records

Nuiqsut Weather History for the Previous 24 Hours

Scroll right to see more
 ConditionsComfort  
Time TempWeatherWind HumidityBarometerVisibility
3:53 am
Tue, Jul 14
36 °FFog.7 mph100%29.95 "Hg0 mi
2:53 am35 °FFog.7 mph100%29.95 "Hg0 mi
1:53 am36 °FFog.9 mph100%29.94 "Hg0 mi
12:53 am37 °FFog.10 mph100%29.93 "Hg0 mi
11:53 pm
Mon, Jul 13
38 °FFog.12 mph100%29.93 "Hg0 mi
11:00 pm39 °FPartly sunny.10 mph96%29.92 "Hg10 mi
9:53 pm43 °FPassing clouds.9 mph86%29.92 "Hg10 mi
7:53 pm45 °FOvercast.9 mph80%29.91 "Hg10 mi
6:53 pm45 °FOvercast.12 mph76%29.91 "Hg10 mi
5:53 pm46 °FOvercast.8 mph77%29.91 "Hg10 mi
4:53 pm48 °FMore clouds than sun.8 mph71%29.91 "Hg10 mi
3:53 pm46 °FOvercast.8 mph77%29.90 "Hg10 mi
2:53 pm48 °FMore clouds than sun.9 mph74%29.89 "Hg10 mi
1:53 pm46 °FMostly cloudy.8 mph77%29.89 "Hg10 mi
12:53 pm45 °FOvercast.7 mph80%29.89 "Hg10 mi
11:53 am42 °FLow clouds.7 mph85%29.88 "Hg10 mi
10:53 am40 °FMostly cloudy.7 mph89%29.88 "Hg10 mi
9:53 am40 °FMostly cloudy.7 mph89%29.87 "Hg10 mi
8:53 am39 °FMostly cloudy.9 mph93%29.87 "Hg10 mi
7:53 am38 °FLow clouds.8 mph93%29.86 "Hg10 mi
6:53 am39 °FLow clouds.8 mph93%29.86 "Hg10 mi
5:53 am38 °FMostly cloudy.8 mph93%29.85 "Hg10 mi
Weather by CustomWeather, © 2020

See weather overview